Change the Weather History Date:

Sunday, July 21, 2013

  Actual Average Record
Temperature  
Mean Temperature 60 °F -  
Max Temperature 67 °F 65 °F 72 °F (2014)
Min Temperature 52 °F 52 °F 40 °F (2012)
Degree Days  
Heating Degree Days 6    
Growing Degree Days 10 (Base 50)    
Moisture  
Dew Point 56 °F    
Average Humidity 84    
Maximum Humidity 100    
Minimum Humidity 60    
Precipitation  
Precipitation 0.00 in 0.09 in - ()
Sea Level Pressure  
Sea Level Pressure 30.11 in    
Wind  
Wind Speed 6 mph ()    
Max Wind Speed 13 mph    
Max Gust Speed -    
Visibility 6.5 miles    
Events      
Averages and records for this station are not official NWS values.
T = Trace of Precipitation, MM = Missing Value Source: Averaged Metar Reports

Daily Weather History Graph

Daily Weather History Graph

Search for Another Location

Airport or City:

Trip Planner

Search our weather history database for the weather conditions in past years. The results will help you decide how hot, cold, wet, or windy it might be!

Date:

Astronomy

Jul. 21, 2013 Rise Set
Actual Time 5:24 AM IST 9:38 PM IST
Civil Twilight 4:37 AM IST 10:24 PM IST
Nautical Twilight 3:27 AM IST 11:33 PM IST
Astronomical Twilight 2:04 AM IST 12:59 AM IST
Moon 8:17 PM IST (7/21) 3:56 AM IST (7/21)
Length of Visible Light 17h 47m
Length of Day
16h 14m
Waxing Gibbous, 97% of the Moon is Illuminated
Jul 21
Waxing Gibbous
Jul 22
Full
Jul 29
Last Quarter
Aug 6
New
Aug 14
First Quarter

Hourly Weather History & Observations

Time (IST) Temp. Dew Point Humidity Pressure Visibility Wind Dir Wind Speed Gust Speed Precip Events Conditions
12:00 AM 57.2 °F 55.4 °F 94% 30.18 in - East 4.6 mph - N/A   Clear
12:30 AM 57.2 °F 55.4 °F 94% 30.18 in - East 3.5 mph - N/A   Clear
1:00 AM 55 °F 54 °F 97% 30.19 in 7 mi East 6.7 mph - -   Clear
1:00 AM 55.4 °F 55.4 °F 100% 30.18 in - East 5.8 mph - N/A   Clear
1:30 AM 55.4 °F 53.6 °F 94% 30.18 in - East 4.6 mph - N/A   Clear
2:00 AM 53.6 °F 51.8 °F 94% 30.18 in - ESE 2.3 mph - N/A   Clear
2:30 AM 53.6 °F 53.6 °F 100% 30.18 in - Variable 3.5 mph - N/A   Clear
3:00 AM 55.4 °F 55.4 °F 100% 30.15 in 6.2 mi ENE 4.6 mph - N/A   Mostly Cloudy
3:30 AM 59.0 °F 57.2 °F 94% 30.15 in 6.2 mi East 6.9 mph - N/A   Mostly Cloudy
4:00 AM 57.2 °F 57.2 °F 100% 30.15 in 6.2 mi ENE 4.6 mph - N/A   Mostly Cloudy
4:30 AM 57.2 °F 57.2 °F 100% 30.15 in 6.2 mi East 3.5 mph - N/A   Mostly Cloudy
5:00 AM 57.2 °F 57.2 °F 100% 30.15 in 6.2 mi East 6.9 mph - N/A   Scattered Clouds
5:30 AM 57.2 °F 55.4 °F 94% 30.15 in 6.2 mi East 6.9 mph - N/A   Scattered Clouds
6:00 AM 57.2 °F 55.4 °F 94% 30.15 in 6.2 mi East 6.9 mph - N/A   Scattered Clouds
6:30 AM 59.0 °F 57.2 °F 94% 30.12 in 6.2 mi East 5.8 mph - N/A   Scattered Clouds
7:00 AM 61 °F 58 °F 87% 30.15 in 14 mi East 6.7 mph - -   Mostly Cloudy
7:00 AM 60.8 °F 59.0 °F 94% 30.12 in 6.2 mi East 5.8 mph - N/A   Mostly Cloudy
7:30 AM 62.6 °F 59.0 °F 88% 30.15 in 6.2 mi East 5.8 mph - N/A   Mostly Cloudy
8:00 AM 62.6 °F 59.0 °F 88% 30.15 in 6.2 mi East 8.1 mph - N/A   Mostly Cloudy
8:30 AM 62.6 °F 59.0 °F 88% 30.15 in 6.2 mi ESE 9.2 mph - N/A   Mostly Cloudy
9:00 AM 62.6 °F 57.2 °F 82% 30.15 in 6.2 mi ESE 10.4 mph - N/A   Mostly Cloudy
9:30 AM 62.6 °F 57.2 °F 82% 30.15 in 6.2 mi East 9.2 mph - N/A   Mostly Cloudy
10:00 AM 62.6 °F 57.2 °F 82% 30.12 in 6.2 mi East 11.5 mph - N/A   Mostly Cloudy
10:30 AM 62.6 °F 57.2 °F 82% 30.12 in 6.2 mi East 12.7 mph - N/A   Mostly Cloudy
11:00 AM 62.6 °F 57.2 °F 82% 30.12 in 6.2 mi East 11.5 mph - N/A   Mostly Cloudy
11:30 AM 62.6 °F 57.2 °F 82% 30.12 in 6.2 mi East 10.4 mph - N/A   Mostly Cloudy
12:00 PM 64.4 °F 57.2 °F 77% 30.12 in 6.2 mi East 10.4 mph - N/A   Mostly Cloudy
12:30 PM 64.4 °F 57.2 °F 77% 30.12 in 6.2 mi East 10.4 mph - N/A   Mostly Cloudy
1:00 PM 64 °F 57 °F 73% 30.12 in 11 mi ENE 8.9 mph - -   Mostly Cloudy
1:00 PM 62.6 °F 57.2 °F 82% 30.12 in 6.2 mi East 9.2 mph - N/A   Mostly Cloudy
1:30 PM 64.4 °F 57.2 °F 77% 30.12 in 6.2 mi East 8.1 mph - N/A   Mostly Cloudy
2:00 PM 64.4 °F 55.4 °F 73% 30.09 in 6.2 mi ENE 6.9 mph - N/A   Mostly Cloudy
3:00 PM 64.4 °F 57.2 °F 77% 30.09 in 6.2 mi Variable 3.5 mph - N/A   Mostly Cloudy
3:30 PM 66.2 °F 57.2 °F 73% 30.09 in 6.2 mi NNE 6.9 mph - N/A   Mostly Cloudy
4:00 PM 66.2 °F 55.4 °F 68% 30.09 in 6.2 mi NE 8.1 mph - N/A   Mostly Cloudy
4:30 PM 66.2 °F 55.4 °F 68% 30.09 in 6.2 mi ENE 9.2 mph - N/A   Mostly Cloudy
5:00 PM 68.0 °F 55.4 °F 64% 30.06 in 6.2 mi ENE 9.2 mph - N/A   Mostly Cloudy
5:30 PM 68.0 °F 53.6 °F 60% 30.06 in 6.2 mi East 9.2 mph - N/A   Mostly Cloudy
6:00 PM 66.2 °F 55.4 °F 68% 30.06 in 6.2 mi East 11.5 mph - N/A   Mostly Cloudy
6:30 PM 66.2 °F 55.4 °F 68% 30.06 in 6.2 mi ENE 11.5 mph - N/A   Mostly Cloudy
7:00 PM 64 °F 54 °F 62% 30.06 in 25 mi East 13.4 mph - -   Scattered Clouds
7:00 PM 64.4 °F 55.4 °F 73% 30.06 in 6.2 mi ENE 12.7 mph - N/A   Mostly Cloudy
7:30 PM 64.4 °F 55.4 °F 73% 30.06 in 6.2 mi ENE 10.4 mph - N/A   Mostly Cloudy
8:00 PM 62.6 °F 53.6 °F 72% 30.06 in 6.2 mi ENE 9.2 mph - N/A   Mostly Cloudy
8:30 PM 62.6 °F 55.4 °F 77% 30.04 in 6.2 mi ENE 6.9 mph - N/A   Mostly Cloudy
9:00 PM 60.8 °F 55.4 °F 82% 30.04 in 6.2 mi NE 6.9 mph - N/A   Mostly Cloudy
9:30 PM 60.8 °F 55.4 °F 82% 30.04 in - NNE 5.8 mph - N/A   Clear
10:00 PM 59.0 °F 55.4 °F 88% 30.04 in - NE 5.8 mph - N/A   Clear
10:30 PM 59.0 °F 55.4 °F 88% 30.04 in - East 5.8 mph - N/A   Clear
11:00 PM 59.0 °F 57.2 °F 94% 30.04 in - East 4.6 mph - N/A   Clear
11:30 PM 59.0 °F 57.2 °F 94% 30.04 in - East 5.8 mph - N/A   Clear